Flag for France Weather past 2 weeks in Gustavia, Saint Barthélemy, France

Now
82 °F

Scattered clouds.


Feels Like: 86 °F
Forecast: N/A
Wind: 15 mph from East

Location: Juliana Airport - Saint Maarten


UV Index: N/A

Visibility: N/A


Pressure: 30.01 "Hg

Humidity: 66%

Dew point: 70 °F

Location of GustaviaLocation

Historic Weather in Gustavia

°F

Gustavia temperature yesterday

Maximum temperature yesterday: 84 °F (at 11:00 AM)
Minimum temperature yesterday: 77 °F (at 12:00 AM)
Average temperature yesterday: 80 °F

Past Weeks' High & Low Weather Summary

 TemperatureHumidityPressure
High84 °F (Apr 3, 11:00 AM)89% (Apr 3, 6:00 AM)30.15 "Hg (Apr 3, 6:00 AM)
Low64 °F (Apr 13, 2:00 PM)48% (Apr 6, 2:00 PM)29.89 "Hg (Apr 15, 4:00 PM)
Average79 °F70%30.03 "Hg
* Reported Apr 2 3:00 PM — Apr 17 3:00 PM, Gustavia, Weather by CustomWeather, © 2014

Note: Actual official high and low records may vary slightly from our data, if they occured in-between our weather recording intervals... More about our weather records

Advertising

Historic Weather Conditions — Data for Previous 24 hours

 ConditionsComfort  
Time TempWeatherWind HumidityBarometerVisibility
3:00 PM
Apr 17
82 °FScattered clouds.14 mph66%30.01 "HgN/A
2:00 PM81 °FScattered clouds.14 mph66%30.01 "HgN/A
1:00 PM82 °FScattered clouds.13 mph62%30.04 "HgN/A
12:00 PM81 °FBroken clouds.15 mph74%30.04 "HgN/A
11:00 AM81 °FBroken clouds.15 mph70%30.04 "HgN/A
9:00 AM75 °FLots of rain. Partly sunny.13 mph83%30.04 "Hg1 mi
7:00 AM79 °FScattered showers. Scattered clouds.15 mph74%30.01 "HgN/A
6:00 AM77 °FScattered clouds.14 mph74%29.98 "HgN/A
5:00 AM77 °FPassing clouds.15 mph79%29.98 "HgN/A
4:00 AM77 °FPassing clouds.9 mph79%29.98 "HgN/A
3:00 AM75 °FPassing clouds.8 mph83%29.98 "HgN/A
2:00 AM75 °FSprinkles. Partly cloudy.12 mph83%29.98 "HgN/A
1:00 AM77 °FScattered showers. Passing clouds.14 mph74%30.01 "HgN/A
12:00 AM77 °FPassing clouds.9 mph79%30.01 "HgN/A
11:00 PM
Apr 16
77 °FScattered showers. Passing clouds.7 mph79%30.01 "HgN/A
10:00 PM79 °FPassing clouds.9 mph74%30.01 "HgN/A
9:00 PM79 °FPassing clouds.8 mph74%30.01 "HgN/A
8:00 PM79 °FPassing clouds.8 mph74%29.98 "HgN/A
7:00 PM79 °FPassing clouds.7 mph74%29.98 "HgN/A
6:00 PM81 °FScattered clouds.6 mph70%29.95 "HgN/A
5:00 PM82 °FScattered clouds.8 mph62%29.95 "HgN/A
4:00 PM82 °FScattered clouds.8 mph70%29.92 "HgN/A
Weather by CustomWeather, © 2014

See weather overview